Orbital Elements at Epoch 2454973.5 (2009-May-22.0) TDB
Reference: JPL 29 (heliocentric ecliptic J2000)
Element | Value | Uncertainty (1-sigma) | Units |
e | .9975143424739534 | 4.422e-06 | |
a | 512.6044057937434 | 0.91213 | au |
q | 1.274158999145848 | 1.1385e-06 | au |
i | 85.7647855400708 | 4.1384e-05 | deg |
node | 278.6790256429147 | 4.7651e-05 | deg |
peri | 129.7723269890618 | 0.00013108 | deg |
M | .001237036211202921 | 3.3113e-06 | deg |
tp | 2454958.933613114178 (2009-May-07.43361311) | 0.00013779 | TDB |
period | 4239083.085366305 11605.98 | 11315 30.98 | d yr |
n | 8.492402549097287E-5 | 2.2667e-07 | deg/d |
Q | 1023.934652588341 | 1.822 | au |
|
| | Orbit Determination Parameters
Additional Information
|